User: anonymous   Login
Location: Cran-Gévrier
(45.9039°N, 6.1012°E)
Time: 23:42:16
(UTC+00:00)
Language:

ZACube-1 - Orbit

View from above orbital plane
View from above orbital plane
View from above satellite
View from above satellite

Ground track
Ground track

The orbit data is extracted from the following two-line orbital elements,

1 39417U 13066B   23340.43998290  .00004599  00000-0  50914-3 0  9995
2 39417  97.7097 296.4641 0055065  80.5335 280.2100 14.86702516542770
Epoch (UTC): 06 December 2023 10:33:34
Eccentricity: 0.0055065
inclination: 97.7097°
perigee height: 570 km
apogee height: 647 km
right ascension of ascending node: 296.4641°
argument of perigee: 80.5335°
revolutions per day: 14.86702516
mean anomaly at epoch: 280.2100°
orbit number at epoch: 54277

The dashed part of the orbit path shows where the satellite is in the earth's shadow,  

DLR